Regional Weather Roundup
Issued by NWS

Home | Current Version | Previous Version | Graphics & Text | Print | Product List | Glossary On
Versions: 1 2 3 4 5 6 7 8 9 10 11 12 13 14 15 16 17 18 19 20 21 22 23 24 25 26 27 28
000
ASUS43 KDMX 310907
RWRIA

WEATHER ROUNDUP FOR IOWA
NATIONAL WEATHER SERVICE DES MOINES IA
400 AM CDT FRI OCT 31 2014

NOTE: "FAIR" INDICATES FEW OR NO CLOUDS BELOW 12,000 FEET WITH NO
SIGNIFICANT WEATHER AND/OR OBSTRUCTIONS TO VISIBILITY.

* - THESE STATIONS ARE NOT NWS STATIONS...THUS NOT UNDER NWS
QUALITY CONTROL.  THEY ALSO DO NOT REPORT WEATHER SUCH
AS PRECIPITATION OR FOG.

IAZ001>003-012>014-020>022-031>034-043>046-311000-
   NORTHWEST IOWA

CITY           SKY/WX    TMP DP  RH WIND       PRES   REMARKS
CARROLL *      CLEAR     30  19  64 N17       30.43S WCI  18
CHEROKEE *     CLEAR     28  21  74 N10       30.47S WCI  19
DENISON *      CLEAR     30  19  64 N13G22    30.44R WCI  20
LE MARS *      CLEAR     27  21  80 N7        30.50F WCI  19
ORANGE CITY *  CLEAR     27  21  80 N9        30.48S WCI  17
SHELDON *      CLEAR     25  21  86 N9        30.47S WCI  15
SIOUX CITY     CLEAR     30  20  66 N14       30.51S WCI  19
SPENCER        CLEAR     27  20  75 N13       30.47R WCI  16
STORM LAKE *   CLEAR     28  21  74 N16G25    30.45S WCI  17
$$

IAZ055>058-069>071-079>083-090>094-311000-
   SOUTHWEST IOWA

CITY           SKY/WX    TMP DP  RH WIND       PRES   REMARKS
ATLANTIC *     PTCLDY    32  19  59 N18G25    30.43R WCI  20
AUDUBON *      CLEAR     30  18  59 N15G26    30.44R WCI  19
CLARINDA *     CLOUDY    36  25  64 N20G29    30.42R WCI  25
COUNCIL BLFS * PTCLDY    32  23  69 N10G16    30.44R WCI  24
CRESTON *      CLOUDY    36  23  60 N22G29    30.37R WCI  24
HARLAN  *      CLEAR     32  19  59 N15G23    30.47R WCI  22
LAMONI         FLURRIES  38  26  62 N22G31    30.34R WCI  27
RED OAK *      CLOUDY    36  23  60 N22G29    30.43R WCI  24
SHENANDOAH *   CLOUDY    36  25  64 N18G31    30.45R WCI  25
$$

IAZ047>049-059>061-072>074-084-311000-
   CENTRAL IOWA

CITY           SKY/WX    TMP DP  RH WIND       PRES   REMARKS
AMES           CLEAR     32  17  54 N24G35    30.38R WCI  19
ANKENY *       CLEAR     34  18  51 N18G32    30.37R WCI  23
CHARITON *     MOCLDY    37  23  56 N20G35    30.33R WCI  27
DES MOINES     PTCLDY    37  20  50 N22G33    30.37R WCI  26
GRINNELL*      CLEAR     34  18  51 N23G40    30.33R WCI  22
KNOXVILLE *    PTCLDY    37  23  56 N24G33    30.31R WCI  26
MARSHALLTOWN   CLEAR     32  15  49 N25G32    30.35R WCI  19
PELLA *        MOCLDY    37  25  60 N20G31    30.34R WCI  27
PERRY *          N/A     32  23  69 N13G22    30.41R WCI  22
$$

IAZ004>006-015-016-023>025-035-036-311000-
   NORTH CENTRAL IOWA

CITY           SKY/WX    TMP DP  RH WIND       PRES   REMARKS
ALGONA *       CLEAR     28  18  64 N14G25    30.44R WCI  17
CLARION *      CLEAR     28  19  69 N14       30.41R WCI  17
ESTHERVILLE    CLEAR     25  18  74 N13       30.45R WCI  14
FORT DODGE *   CLEAR     30  16  55 N9G18     30.43R WCI  22
MASON CITY     CLEAR     27  16  63 N17       30.40R WCI  14
FOREST CITY *  CLEAR     30  19  64 N15G22    30.40R WCI  19
IOWA FALLS *     N/A     30  16  55 N18G31    30.38R WCI  18
$$

IAZ007>011-017>019-026>030-037>042-050>054-066-311000-
   NORTHEAST IOWA

CITY           SKY/WX    TMP DP  RH WIND       PRES   REMARKS
CEDAR RAPIDS   CLEAR     34  19  54 N22G30    30.25R WCI  22
CHARLES CITY * CLEAR     28  16  59 N17G26    30.36R WCI  16
CLINTON *      CLOUDY    39  23  52 N20G26    30.18R WCI  30
DECORAH *      CLEAR     28  18  64 N13G23    30.29R WCI  18
DUBUQUE        MOCLDY    36  20  52 N22G30    30.19R WCI  25
MONTICELLO *   CLEAR     34  21  60 N25G35    30.23R WCI  21
OELWEIN *      CLEAR     30  16  55 N20G29    30.31R WCI  18
WATERLOO       CLEAR     31  14  49 N24G32    30.33R WCI  17
$$

IAZ064-065-067-068-078-311000-
   EAST CENTRAL IOWA

CITY           SKY/WX    TMP DP  RH WIND       PRES   REMARKS
DAVENPORT      CLEAR     39  21  48 NW23G29   30.17R WCI  28
IOWA CITY      PTCLDY    39  23  52 N20G35    30.25R WCI  29
MT. PLEASANT * CLOUDY    43  27  52 NW24G33   30.21R
MUSCATINE *    CLOUDY    43  25  49 N14G21    30.21R
QUAD CITIES    PTCLDY    41  21  44 NW18G35   30.16R
$$

IAZ062-063-075>077-085>089-095>099-311000-
   SOUTHEAST IOWA

CITY           SKY/WX    TMP DP  RH WIND       PRES   REMARKS
BURLINGTON     CLOUDY    45  33  63 N17G26    30.17R
FAIRFIELD *    CLOUDY    41  25  52 N29G38    30.24R
FORT MADISON * CLOUDY    46  32  57 NW18G31   30.19R
KEOKUK *       CLOUDY    46  32  57 N17G29    30.18R
OSKALOOSA *      N/A     37  27  65 N22G28    30.29R WCI  27
CENTERVILLE *  PTCLDY    37  28  70 NW17G29   30.30R WCI  28
OTTUMWA        CLOUDY    39  27  62 NW22G35   30.28R WCI  29
WASHINGTON *   MOCLDY    39  25  56 NW17G29   30.24R WCI  30
$$

ABBREVIATIONS USED IN REMARKS
   TC - TEMPERATURES IN CELSIUS
  WCI - WIND CHILL INDEX
   HX - HEAT INDEX
  VSB - VISIBILITY
$$




USA.gov is the U.S. government's official web portal to all federal, state and local government web resources and services.